Location: Stilling
(56.0622°N, 9.9882°E)
Time: 23:50:31
(UTC+00:00)

Genesis I - Pass Details

Date: 13 July 2020
Orbit: 509 x 513 km, 64.5° (Epoch: 03 August)

Event Time Altitude Azimuth Distance (km) Brightness Sun altitude
Rises 21:35:41 0° 241° (WSW) 2,620 6.8 -8.9°
Reaches altitude 10° 21:37:53 10° 245° (WSW) 1,736 5.9 -9.0°
Maximum altitude 21:41:43 58° 326° (NW) 602 3.9 -9.2°
Drops below altitude 10° 21:45:35 10° 46° (NE) 1,742 6.1 -9.4°
Sets 21:47:47 0° 51° (NE) 2,631 7.0 -9.6°
